Muskegon, MI

9:48 AM EDT on June 26, 2017 (GMT -0400)
Muskegon County

Weather History for KMKG - April, 2013

Change the Weather History Date:

Tuesday, April 30, 2013

  Actual Average Record
Temperature  
Mean Temperature 69 °F 52 °F  
Max Temperature 81 °F 62 °F 84 °F (1942)
Min Temperature 57 °F 42 °F 24 °F (1909)
Degree Days  
Heating Degree Days 0 13  
Month to date heating degree days 634 556  
Since 1 July heating degree days 6090 6218  
Cooling Degree Days 4 0  
Month to date cooling degree days 4 4  
Year to date cooling degree days 4 4  
Growing Degree Days 19 (Base 50)    
Moisture  
Dew Point 54 °F    
Average Humidity 58    
Maximum Humidity 80    
Minimum Humidity 36    
Precipitation  
Precipitation 0.17 in 0.10 in 1.89 in (1963)
Month to date precipitation 7.43 2.91  
Year to date precipitation 18.12 9.02  
Snow  
Snow 0.00 in 0.00 in 4.00 in (1907)
Month to date snowfall T 2.3  
Since 1 July snowfall 98.6 93.7  
Snow Depth 0.00 in    
Sea Level Pressure  
Sea Level Pressure 29.86 in    
Wind  
Wind Speed 13 mph (SSE)    
Max Wind Speed 25 mph    
Max Gust Speed 33 mph    
Visibility 10 miles    
Events Rain , Thunderstorm    
T = Trace of Precipitation, MM = Missing Value Source: NWS Daily Summary

Daily Weather History Graph

Daily Weather History Graph

Search for Another Location

Airport or City:

Trip Planner

Search our weather history database for the weather conditions in past years. The results will help you decide how hot, cold, wet, or windy it might be!

Date:

Astronomy

Apr. 30, 2013 Rise Set
Actual Time 6:39 AM EDT 8:45 PM EDT
Civil Twilight 6:08 AM EDT 9:16 PM EDT
Nautical Twilight 5:30 AM EDT 9:55 PM EDT
Astronomical Twilight 4:48 AM EDT 10:37 PM EDT
Moon 1:10 AM EDT (4/30) 11:06 AM EDT (4/30)
Length of Visible Light 15h 08m
Length of Day
14h 06m
Waning Gibbous, 70% of the Moon is Illuminated
Apr 30
Waning Gibbous
May 2
Last Quarter
May 9
New
May 18
First Quarter
May 25
Full

Hourly Weather History & Observations

Time (EDT) Temp. Dew Point Humidity Pressure Visibility Wind Dir Wind Speed Gust Speed Precip Events Conditions
12:55 AM 57.9 °F 52.0 °F 81% 29.86 in 10.0 mi SE 8.1 mph - N/A   Partly Cloudy
1:55 AM 60.1 °F 51.1 °F 72% 29.86 in 10.0 mi SSE 8.1 mph - N/A   Clear
2:55 AM 60.1 °F 51.1 °F 72% 29.84 in 10.0 mi SE 11.5 mph - N/A   Clear
3:55 AM 61.0 °F 52.0 °F 72% 29.84 in 9.0 mi SSE 12.7 mph - 0.00 in Rain , Thunderstorm Light Thunderstorms and Rain
4:14 AM 60.8 °F 51.8 °F 72% 29.84 in 10.0 mi SSE 9.2 mph - 0.00 in Rain Light Rain
4:55 AM 60.1 °F 52.0 °F 75% 29.83 in 10.0 mi SE 12.7 mph - 0.00 in   Scattered Clouds
5:02 AM 60.8 °F 51.8 °F 72% 29.82 in 10.0 mi SE 12.7 mph - 0.00 in Rain , Thunderstorm Light Rain
5:55 AM 59.0 °F 52.0 °F 78% 29.83 in 10.0 mi SE 12.7 mph - 0.03 in Thunderstorm Thunderstorm
6:55 AM 59.0 °F 53.1 °F 81% 29.82 in 10.0 mi SE 10.4 mph 19.6 mph 0.13 in Rain , Thunderstorm Light Thunderstorms and Rain
7:25 AM 60.8 °F 53.6 °F 77% 29.83 in 10.0 mi SSE 11.5 mph - 0.00 in   Mostly Cloudy
7:55 AM 60.1 °F 53.1 °F 78% 29.84 in 10.0 mi SE 16.1 mph 21.9 mph 0.00 in   Scattered Clouds
8:11 AM 60.8 °F 53.6 °F 77% 29.85 in 10.0 mi SE 11.5 mph 21.9 mph N/A   Mostly Cloudy
8:55 AM 60.1 °F 53.1 °F 78% 29.89 in 8.0 mi SE 9.2 mph - 0.00 in Rain Light Rain
9:12 AM 60.8 °F 53.6 °F 77% 29.88 in 9.0 mi SSE 9.2 mph - 0.01 in   Overcast
9:21 AM 60.8 °F 53.6 °F 77% 29.88 in 9.0 mi SE 10.4 mph - 0.01 in   Mostly Cloudy
9:30 AM 60.8 °F 53.6 °F 77% 29.89 in 9.0 mi SE 12.7 mph - 0.01 in   Mostly Cloudy
9:48 AM 60.8 °F 53.6 °F 77% 29.89 in 9.0 mi SE 13.8 mph - 0.01 in   Mostly Cloudy
9:55 AM 62.1 °F 54.0 °F 75% 29.89 in 9.0 mi SE 12.7 mph - 0.01 in   Mostly Cloudy
10:46 AM 62.6 °F 53.6 °F 72% 29.87 in 9.0 mi SE 15.0 mph 21.9 mph N/A   Scattered Clouds
10:55 AM 62.1 °F 54.0 °F 75% 29.87 in 9.0 mi SE 17.3 mph 23.0 mph N/A   Partly Cloudy
11:55 AM 66.9 °F 55.0 °F 66% 29.88 in 10.0 mi SSE 12.7 mph 23.0 mph N/A   Clear
12:55 PM 70.0 °F 55.9 °F 61% 29.87 in 10.0 mi SE 16.1 mph - N/A   Clear
1:55 PM 73.9 °F 57.0 °F 55% 29.85 in 10.0 mi SE 13.8 mph 23.0 mph N/A   Partly Cloudy
2:55 PM 78.1 °F 57.0 °F 48% 29.84 in 10.0 mi SSE 13.8 mph - N/A   Partly Cloudy
3:55 PM 79.0 °F 54.0 °F 42% 29.84 in 10.0 mi South 15.0 mph 24.2 mph N/A   Scattered Clouds
4:55 PM 80.6 °F 51.8 °F 37% 29.83 in 10.0 mi South 17.3 mph - N/A   Scattered Clouds
5:55 PM 79.0 °F 55.0 °F 44% 29.84 in 10.0 mi South 17.3 mph - N/A   Partly Cloudy
6:55 PM 79.0 °F 55.9 °F 45% 29.86 in 10.0 mi South 15.0 mph 20.7 mph N/A   Clear
7:55 PM 79.0 °F 55.9 °F 45% 29.87 in 10.0 mi South 10.4 mph - N/A   Clear
8:55 PM 77.0 °F 57.0 °F 50% 29.89 in 10.0 mi South 6.9 mph - N/A   Partly Cloudy
9:55 PM 75.9 °F 57.0 °F 52% 29.92 in 10.0 mi SSE 12.7 mph - N/A   Partly Cloudy
10:55 PM 73.9 °F 57.9 °F 57% 29.93 in 10.0 mi SSE 10.4 mph - N/A   Clear
11:55 PM 75.0 °F 57.9 °F 55% 29.94 in 10.0 mi South 17.3 mph 24.2 mph N/A   Clear